Location: Calvera
(42.3882°N, 0.6137°E)
Time: 20:12:45
(UTC+00:00)

SJ-12 - Pass Details

Date: 28 October 2020
Orbit: 568 x 585 km, 97.7° (Epoch: 22 November)

Event Time Altitude Azimuth Distance (km) Brightness Sun altitude
Rises 05:23:49 0° 7° (N) 2,809 7.4 -12.1°
Reaches altitude 10° 05:26:01 10° 3° (N) 1,902 6.5 -11.7°
Maximum altitude 05:30:02 55° 286° (WNW) 701 4.0 -11.0°
Drops below altitude 10° 05:34:01 10° 209° (SSW) 1,877 6.3 -10.2°
Sets 05:36:10 0° 205° (SSW) 2,768 7.2 -9.8°
